Regional Weather Roundup
Issued by NWS Newport/Morehead, NC

Current Version | Previous Version | Text Only | Print | Product List | Glossary On
Versions: 1 2 3 4 5 6 7 8 9 10 11 12 13 14 15 16 17 18 19 20 21 22 23 24 25 26 27 28 29 30 31 32 33 34 35 36 37 38 39 40 41 42 43 44 45 46 47 48 49 50
850
ASUS42 KMHX 160213
RWRMHX
WEATHER ROUNDUP FOR EASTERN NORTH CAROLINA
NATIONAL WEATHER SERVICE NEWPORT/MOREHEAD CITY NC
900 PM EST SUN JAN 15 2017

NOTE: "FAIR" INDICATES FEW OR NO CLOUDS BELOW 12,000 FEET
WITH NO SIGNIFICANT WEATHER AND/OR OBSTRUCTIONS TO VISIBILITY

NCZ015>017-031-032-045>047-102-103-160300-
NORTH COAST

CITY           SKY/WX    TMP DP  RH WIND       PRES   REMARKS
EDENTON        CLOUDY    44  40  87 CALM      30.40F
ELIZABETH CITY MOCLDY    40  37  89 NE3       30.41R
KITTY HAWK     NOT AVBL
MANTEO         CLOUDY    40  38  92 N5        30.40R

$$

NCZ045>047-081-094-103-104-160300-
CENTRAL COAST

CITY           SKY/WX    TMP DP  RH WIND       PRES   REMARKS
FRISCO         PTCLDY    44  40  85 NE8       30.37S FOG

$$

NCZ095-097-098-100-101-160300-
SOUTHERN COAST

CITY           SKY/WX    TMP DP  RH WIND       PRES   REMARKS
BEAUFORT       PTCLDY    45  41  86 NE6       30.37R
CEDAR ISLAND   NOT AVBL
JACKSONVILLE   CLOUDY    49  42  77 NE7       30.37R
PINEY ISLAND   CLEAR    N/A N/A N/A NE8       30.37R
WILMINGTON     MOCLDY    51  44  77 E10       30.35S


$$

NCZ011>013-027>030-043-044-078>080-089-090>093-098-160300-
COASTAL PLAIN

CITY           SKY/WX    TMP DP  RH WIND       PRES   REMARKS
AHOSKIE          N/A     43  31  63 NE3       30.40S
CLINTON        CLOUDY    53  47  79 E5        30.35F
ELIZABETHTOWN  CLOUDY    52  46  79 E5        30.34R
GOLDSBORO      CLOUDY    50  46  84 E7        30.34S
GREENVILLE     PTCLDY    46  39  76 E5        30.38S
HAVELOCK       CLEAR     45  41  86 E6        30.38S
KENANSVILLE    CLOUDY    50  45  81 E6        30.36S
KINSTON        CLOUDY    50  41  71 E5        30.38R
NEW BERN       CLOUDY    46  40  79 NE6       30.38F
RICHLANDS      MOCLDY    48  43  82 E8        30.36F
ROCKY MOUNT    CLOUDY    47  37  68 NE3       30.37S
WASHINGTON     CLOUDY    43  40  88 E5        30.38S
WHITEVILLE     CLEAR     52  47  83 E5        30.33R

$$

AMZ130-135-150-152-154-156-158-170-250-252-270-ANZ085-086-088-633-658-670-160300-
MARINE OBSERVATIONS

STATION/POSITION TIME  TEMP    WIND        PRES    WAVE   SWELL
                       AIR SEA DIR/SP/G            HT/PER HT/PER
                 (UTC) (F)     (DEG/KT/KT) (MB)    (FT/S) (FT/S)
CHESAPEAKE LIGHT NOT AVBL
64 E VA BEACH    0150   48 63  360/ 12/ 16 1028.2    4/ 7   3/ 7
DUCK             0148   43 44   10/  8/ 10 1028.6
2 E DUCK         0200      46                N/A     4/ 6   2/11
OREGON INLET     0148          360/  7/ 11 1028.7
13E OREGON INLT  NOT AVBL
HATTERAS CG      0148   45 54   10/ 15/ 18 1027.8
DIAMOND BUOY     0150   52 74   10/ 17/ 21 1027.5    5/11   3/11
CAPE LOOKOUT     0200   47      10/ 13/ 16 1027.7
BEAUFORT LAB     0148   45 50   30/  5/  8 1027.4
30 SE NEW RVR IN 0108   52 65   50/ 16/ 19 1027.3
30 SE NEW RVR IN 0143      65                N/A     4/11   2/11
27 SE WRIGHTSVLE 0108   58 71   90/ 17/ 23 1026.2
5 SE WRIGHTSVLE  NOT AVBL
225 S CAPE HAT   0150   69 72   40/  8/ 10 1026.0    4/11   5/11
41 SE CHARLESTON 0150   69 71   CALM  /  4 1025.4    3/11   3/11

$$




USA.gov is the U.S. government's official web portal to all federal, state and local government web resources and services.